This is the latest recevied weather packets stored in our database for station/object XE2VP-WX. If no packets are shown the sender has not sent any weather packets the latest 1 day(s).
| Time | Temp. | Humidity | Pressure | Rain* | Wind** | Luminosity | Snow |
|---|---|---|---|---|---|---|---|
| 1778017041 | 38.89° C | 14% | 935.2 hPa | 0 mm | 0.89 m/s, 218° | 617 W/m² | - |
| 1778016980 | 38.89° C | 14% | 935.2 hPa | 0 mm | 0.89 m/s, 203° | 642 W/m² | - |
| 1778016920 | 38.89° C | 14% | 935.2 hPa | 0 mm | 0.89 m/s, 28° | 611 W/m² | - |
| 1778016857 | 39.44° C | 14% | 935.2 hPa | 0 mm | 0.89 m/s, 204° | 570 W/m² | - |
| 1778016797 | 39.44° C | 15% | 935.3 hPa | 0 mm | 0.89 m/s, 217° | 566 W/m² | - |
| 1778016738 | 38.89° C | 16% | 935.3 hPa | 0 mm | 0.89 m/s, 226° | 636 W/m² | - |
| 1778016677 | 38.89° C | 16% | 935.3 hPa | 0 mm | 0.89 m/s, 242° | 717 W/m² | - |
| 1778016617 | 38.89° C | 16% | 935.3 hPa | 0 mm | 0.89 m/s, 224° | 729 W/m² | - |
| 1778016558 | 38.89° C | 16% | 935.3 hPa | 0 mm | 0.89 m/s, 206° | 722 W/m² | - |
| 1778016497 | 39.44° C | 15% | 935.4 hPa | 0 mm | 0.89 m/s, 237° | 729 W/m² | - |
| 1778016437 | 38.89° C | 15% | 935.4 hPa | 0 mm | 0.89 m/s, 218° | 737 W/m² | - |
| 1778016377 | 38.89° C | 15% | 935.4 hPa | 0 mm | 0.89 m/s, 226° | 745 W/m² | - |
| 1778016317 | 38.89° C | 15% | 935.5 hPa | 0 mm | 0.89 m/s, 42° | 754 W/m² | - |
| 1778016257 | 38.89° C | 15% | 935.5 hPa | 0 mm | 1.34 m/s, 226° | 750 W/m² | - |
| 1778016197 | 38.89° C | 15% | 935.5 hPa | 0 mm | 1.34 m/s, 226° | 726 W/m² | - |
| 1778016138 | 38.89° C | 16% | 935.5 hPa | 0 mm | 1.34 m/s, 226° | 704 W/m² | - |
| 1778016077 | 38.89° C | 16% | 935.5 hPa | 0 mm | 1.34 m/s, 226° | 690 W/m² | - |
| 1778016017 | 38.89° C | 17% | 935.6 hPa | 0 mm | 1.34 m/s, 200° | 715 W/m² | - |
| 1778015957 | 38.89° C | 17% | 935.6 hPa | 0 mm | 1.34 m/s, 205° | 728 W/m² | - |
| 1778015897 | 38.89° C | 17% | 935.6 hPa | 0 mm | 1.34 m/s, 204° | 731 W/m² | - |
| 1778015838 | 38.89° C | 17% | 935.6 hPa | 0 mm | 1.34 m/s, 216° | 716 W/m² | - |
| 1778015777 | 38.89° C | 17% | 935.6 hPa | 0 mm | 1.34 m/s, 214° | 749 W/m² | - |
| 1778015718 | 38.89° C | 17% | 935.7 hPa | 0 mm | 1.34 m/s, 228° | 759 W/m² | - |
| 1778015657 | 38.89° C | 17% | 935.7 hPa | 0 mm | 1.34 m/s, 233° | 764 W/m² | - |
| 1778015598 | 38.89° C | 17% | 935.7 hPa | 0 mm | 1.34 m/s, 226° | 764 W/m² | - |
* Rain latest hour (hover to see other rain measurements)
** Current wind speed in m/s (hover to see current wind gust speed)